Location: El Carrer d�Abaix
(41.5797°N, 2.1791°E)
Time: 00:49:47
(UTC+00:00)

Meteor 1-16 Rocket - Pass Details

Date: 06 June 2020
Orbit: 789 x 908 km, 81.2° (Epoch: 15 July)

Event Time Altitude Azimuth Distance (km) Brightness Sun altitude
Rises 22:06:22 0° 353° (N) 3,361 8.6 -21.3°
Reaches altitude 10° 22:08:50 10° 358° (N) 2,409 7.5 -21.5°
Maximum altitude 22:14:11 59° 77° (ENE) 919 4.3 -21.9°
Enters shadow 22:15:26 47° 128° (SE) 1,053 4.3 -22.0°
